User: anonymous   Login
Location: Puketoi
(40.5833°S, 176.0167°E)
Time: 02:40:26
(UTC+00:00)
Language:

Cosmos 1484 Rocket - Orbit

View from above orbital plane
View from above orbital plane
View from above satellite
View from above satellite

Ground track
Ground track

The orbit data is extracted from the following two-line orbital elements,

1 14208U 83075B   23147.20330671  .00003359  00000-0  17695-3 0  9998
2 14208  97.5260 122.2966 0034455 199.8607 160.1287 15.15796196175306
Epoch (UTC): 27 May 2023 04:52:45
Eccentricity: 0.0034455
inclination: 97.5260°
perigee height: 495 km
apogee height: 542 km
right ascension of ascending node: 122.2966°
argument of perigee: 199.8607°
revolutions per day: 15.15796196
mean anomaly at epoch: 160.1287°
orbit number at epoch: 17530

The dashed part of the orbit path shows where the satellite is in the earth's shadow,  

DLR